Carlsbad, NM

3:53 AM MST on February 22, 2017 (GMT -0700)
Cavern City

Weather History for KCNM - April, 2014

Change the Weather History Date:

Sunday, April 6, 2014

  Actual Average Record
Temperature  
Mean Temperature 59 °F -  
Max Temperature 71 °F 77 °F 93 °F (2011)
Min Temperature 48 °F 43 °F 27 °F (1983)
Degree Days  
Heating Degree Days 6    
Growing Degree Days 9 (Base 50)    
Moisture  
Dew Point 24 °F    
Average Humidity 28    
Maximum Humidity 48    
Minimum Humidity 14    
Precipitation  
Precipitation 0.00 in - - ()
Sea Level Pressure  
Sea Level Pressure 29.72 in    
Wind  
Wind Speed 9 mph (NNW)    
Max Wind Speed 25 mph    
Max Gust Speed 36 mph    
Visibility 10 miles    
Events      
Averages and records for this station are not official NWS values.
T = Trace of Precipitation, MM = Missing Value Source: NWS Daily Summary

Daily Weather History Graph

Daily Weather History Graph

Search for Another Location

Airport or City:

Trip Planner

Search our weather history database for the weather conditions in past years. The results will help you decide how hot, cold, wet, or windy it might be!

Date:

Astronomy

Apr. 06, 2014 Rise Set
Actual Time 6:38 AM MDT 7:20 PM MDT
Civil Twilight 6:13 AM MDT 7:45 PM MDT
Nautical Twilight 5:44 AM MDT 8:14 PM MDT
Astronomical Twilight 5:14 AM MDT 8:44 PM MDT
Moon 11:52 AM MDT (4/6) 1:07 AM MDT (4/6)
Length of Visible Light 13h 31m
Length of Day
12h 41m
Waxing Crescent, 44% of the Moon is Illuminated
Apr 6
Waxing Crescent
Apr 7
First Quarter
Apr 15
Full
Apr 22
Last Quarter
Apr 29
New

Hourly Weather History & Observations

Time (MDT) Temp. Dew Point Humidity Pressure Visibility Wind Dir Wind Speed Gust Speed Precip Events Conditions
12:53 AM 59.0 °F 18.0 °F 20% 29.73 in 10.0 mi North 4.6 mph - N/A   Partly Cloudy
1:53 AM 57.9 °F 26.1 °F 30% 29.73 in 10.0 mi NW 5.8 mph - N/A   Partly Cloudy
2:53 AM 55.9 °F 26.1 °F 32% 29.72 in 10.0 mi NW 9.2 mph - N/A   Partly Cloudy
3:53 AM 53.1 °F 28.0 °F 38% 29.71 in 10.0 mi WNW 8.1 mph - N/A   Clear
4:53 AM 48.0 °F 27.0 °F 44% 29.72 in 10.0 mi WNW 8.1 mph - N/A   Clear
5:53 AM 48.9 °F 28.9 °F 46% 29.71 in 10.0 mi North 10.4 mph - N/A   Clear
6:53 AM 48.9 °F 30.0 °F 48% 29.73 in 10.0 mi North 8.1 mph - N/A   Clear
7:53 AM 48.9 °F 30.0 °F 48% 29.75 in 10.0 mi East 8.1 mph - N/A   Clear
8:53 AM 53.1 °F 30.9 °F 43% 29.75 in 10.0 mi NNE 5.8 mph - N/A   Clear
9:53 AM 60.1 °F 28.9 °F 31% 29.75 in 10.0 mi North 11.5 mph - N/A   Clear
10:53 AM 64.9 °F 28.0 °F 25% 29.73 in 10.0 mi NNE 9.2 mph - N/A   Clear
11:53 AM 68.0 °F 23.0 °F 18% 29.68 in 10.0 mi NE 6.9 mph - N/A   Clear
12:53 PM 69.1 °F 21.0 °F 16% 29.66 in 10.0 mi Variable 3.5 mph - N/A   Partly Cloudy
1:53 PM 70.0 °F 21.9 °F 16% 29.67 in 10.0 mi NW 11.5 mph 27.6 mph 0.00 in   Mostly Cloudy
2:53 PM 69.1 °F 19.9 °F 15% 29.67 in 10.0 mi WNW 17.3 mph 27.6 mph N/A   Mostly Cloudy
3:23 PM 64.9 °F 24.1 °F 21% 29.78 in 10.0 mi North 12.7 mph 17.3 mph N/A   Overcast
3:53 PM 69.1 °F 21.9 °F 17% 29.66 in 10.0 mi West 11.5 mph 17.3 mph N/A   Partly Cloudy
4:53 PM 69.1 °F 17.1 °F 14% 29.66 in 10.0 mi WNW 25.3 mph 35.7 mph N/A   Scattered Clouds
5:53 PM 68.0 °F 19.9 °F 16% 29.68 in 10.0 mi WNW 20.7 mph 28.8 mph N/A   Clear
6:53 PM 66.0 °F 19.9 °F 17% 29.69 in 10.0 mi North 17.3 mph - N/A   Clear
7:53 PM 59.0 °F 19.9 °F 22% 29.70 in 10.0 mi Calm Calm - N/A   Clear
8:53 PM 50.0 °F 19.0 °F 29% 29.74 in 10.0 mi WSW 8.1 mph - N/A   Clear
9:53 PM 55.9 °F 21.0 °F 26% 29.75 in 10.0 mi WNW 4.6 mph - N/A   Scattered Clouds
10:53 PM 59.0 °F 24.1 °F 26% 29.75 in 10.0 mi North 8.1 mph - N/A   Mostly Cloudy
11:53 PM 50.0 °F 23.0 °F 35% 29.76 in 10.0 mi SSW 11.5 mph - N/A   Clear